Voltar ao catálogo

STARLINK-30910

AtivoComunicaçõesVLEO
NORAD 58376·PAYLOAD·🇺🇸 United States

Lançado Nov 20, 2023 de Vandenberg Space Force Base

Loading…

Próximas Passagens (próximas 24 horas)

TLE

AtualizadoSource: CelesTrak SupGP

Época: Sep 14, 2026, 22:09 UTC

1 58376C 23178C   26257.92340278 -.00000571  00000+0 -16861-4 0  2574
2 58376  53.1577 197.8414 0001182  91.9718 284.5688 15.34403215    10

Acompanhe STARLINK-30910 em tempo real com AllMySat

Download on the App Store